Voltar ao catálogo

COSMOS 1133

AtivoNavegaçãoLEO
NORAD 11541·PAYLOAD·🇷🇺 Russia

Lançado Sep 25, 1979 de Plesetsk Cosmodrome

Loading…

Próximas Passagens (próximas 24 horas)

TLE

AtualizadoSource: Space-Track

Época: Sep 14, 2026, 04:37 UTC

1 11541U 79084D   26257.19297934  .00000007  00000-0  14993-3 0  9992
2 11541  74.0258 170.2608 0028547 235.4355 277.6814 12.50884915 78910

Acompanhe COSMOS 1133 em tempo real com AllMySat

Download on the App Store